METEOR 2-11 DEB

Satellite information

Favourite Embed

Satellite Type and Status

DEBRISIN ORBIT

Key statistics

Satellite METEOR 2-11 DEB at a glance.

Uptime

15038

Days in orbit

Revolutions

≈ 14.1

Per day

Orbit

LEO

Low Earth Orbit

Inclination

82.5

Latest

Satellite identification and parameters

Extended collection of information and parameters for METEOR 2-11 DEB.

Object identification

Identified? True

Debris? True

Object name: METEOR 2-11 DEB

International designator: 1984-072AD

Object number (NORAD): 60008

Object ID (CCSDS): 60008

Country: COMMONWEALTH OF INDEPENDENT STATES (CIS)

Current information (Y/N): Y

RCS size: SMALL

Orbital parameters

Period: 102.393 minutes

Inclination: 82.5093 deg

SMA: 7250.035 km

Apoapsis: 898.076 km

Periapsis: 845.724 km

RAAN: 200.4022 deg

Eccentricy: 0.00361052

Argument of periapsis: 327.661 deg

Mean anomaly: 32.2349 deg

Mean motion: 14.06347389 rev/day

Mean motion (dot): 0.000085 rev/day2

B* drag term: 0.0051128439 1/REarth

Two-line elements (TLE)

Creation date: Sept. 3, 2025, 10:15 a.m.

Reference frame: TEME

Reference center: EARTH

Epoch: Sept. 3, 2025, 4:36 a.m. UTC

TLE line 0: 0 METEOR 2-11 DEB

TLE line 1: 1 60008U 84072AD 25246.19176752 .00008500 00000-0 51128-2 0 9994

TLE line 2: 2 60008 82.5093 200.4022 0036105 327.6610 32.2349 14.06347389593806

Live tracking on map

Real-time ground track for satellite METEOR 2-11 DEB.

In-orbit conjunctions

A list of the most updated potential collisions computed for object METEOR 2-11 DEB.

Target Orbit TCA Probability of collision Miss distance Type
FENGYUN 1C DEB SSO 2024-12-22 01:42:07 0.0004228034 375.0 (m) DEBRIS
COSMOS 1275 DEB LEO 2024-11-22 11:13:03 0.0006802108 168.0 (m) DEBRIS
SL-3 R/B LEO 2024-08-19 15:46:11 0.0001135201 398.0 (m) ROCKET BODY
CZ-6A DEB SSO 2024-06-18 01:15:36 0.0002033618 668.0 (m) DEBRIS

Associated space launch

Second generation soviet meteorological satellite

METEOR 2-11 DEB was lifted into orbit during the mission ‘Tsiklon-3 | Meteor-2 11’, on board a Tsiklon-3 space rocket.

The launch took place on July 5, 1984, 3:35 a.m. from 32/2.

For more information about the launch, click the button.

Launch to space Tsiklon-3 | Meteor-2 11
Tsiklon-3 | Meteor-2 11

Agency: N/A

Status: Launch Successful

Launch date: July 5, 1984, 3:35 a.m. UTC

Rocket: Tsiklon-3

Launch pad: 32/2

Location: Plesetsk Cosmodrome, Russian Federation

...

Latest news about this satellite

There are no fresh news available about this satellite. Check back as we update our databases every day.


Newsletter sign-up

Weekly statistics, charts and insights to help you stay on top of the space industry.